Regional Weather Roundup
Issued by NWS Charleston, SC

Current Version | Previous Version | Graphics & Text | Print | Product List | Glossary On
Versions: 1 2 3 4 5 6 7 8 9 10 11 12 13 14 15 16 17 18 19 20 21 22 23 24 25 26 27 28 29 30 31 32 33 34 35 36 37 38 39 40 41 42 43 44 45 46 47 48 49 50
000 ASUS42 KCHS 280512 RWRCHS REGIONAL WEATHER ROUNDUP NATIONAL WEATHER SERVICE CHARLESTON SC 100 AM EDT SAT MAR 28 2015 NOTE: "FAIR" INDICATES FEW OR NO CLOUDS BELOW 12,000 FEET WITH NO SIGNIFICANT WEATHER AND/OR OBSTRUCTIONS TO VISIBILITY. NOT ALL STATIONS ARE QUALITY CONTROLLED BY THE NATIONAL WEATHER SERVICE. USE DATA WITH CAUTION...ESPECIALLY DEWPOINT OBSERVATIONS. SCZ027-030-031-034>040-042>050-280600- ...SOUTHEAST SOUTH CAROLINA... CITY SKY/WX TMP DP RH WIND PRES REMARKS N CHARLESTON CLOUDY 48 45 89 N10 29.90R WATERFRONT PRK N/A 50 N/A N/A NW10G16 N/A MOUNT PLEASANT CLOUDY 48 46 93 NW6 29.90R FOG PINOPOLIS N/A 52 45 76 N9 29.81R MONCKS CORNER CLOUDY 50 45 81 N5 29.90R SUMMERVILLE CLOUDY 50 45 81 NW6 29.92R BEAUFORT MCAS CLEAR 50 44 80 N12 29.90R BEAUFORT ARPT FAIR 50 46 87 CALM 29.90R HILTON HEAD IS PTCLDY 52 46 82 N10G17 29.92R WALTERBORO PTCLDY 45 43 93 N5 29.92R ALLENDALE CLOUDY 48 45 87 CALM 29.92S ...SOUTHERN MIDLANDS AND PEE DEE... CITY SKY/WX TMP DP RH WIND PRES REMARKS GEORGETOWN NOT AVBL KINGSTREE NOT AVBL ORANGEBURG MOCLDY 48 42 80 CALM 29.91F BARNWELL CLOUDY 46 45 93 W5 29.93R AIKEN CLOUDY 43 41 93 W3 29.96R MANNING FLURRIES 46 36 66 CALM 29.91R COLUMBIA CLOUDY 46 42 86 W6 29.90R SUMTER CLOUDY 46 43 87 SW5 29.88S FLORENCE CLOUDY 47 43 86 W5 29.88R MYRTLE BEACH CLOUDY 46 39 76 NW6 29.88S N MYRTLE BEACH CLOUDY 45 42 89 NW5 29.86R $$ GAZ063-065-086>088-099>101-113>116-118-119-134>141-150-280600- ...SOUTHEAST GEORGIA... CITY SKY/WX TMP DP RH WIND PRES REMARKS SAVANNAH ARPT CLOUDY 52 44 74 NW8 29.92R HUNTER AAF CLOUDY 51 44 78 W6 29.90R FORT STEWART PTCLDY 51 37 59 W10 29.92R STATESBORO PTCLDY 50 44 79 N5 29.95R SYLVANIA CLOUDY 49 45 85 N7 29.95R CLAXTON MOCLDY 52 36 54 NW12 29.95R ...CSRA...CENTRAL AND FAR SOUTHEAST GEORGIA... CITY SKY/WX TMP DP RH WIND PRES REMARKS THOMSON PTCLDY 47 40 75 CALM 30.00R AUGUSTA-BUSH CLOUDY 47 44 90 W6 29.95R AUGUSTA-DANIEL CLOUDY 48 42 80 CALM 29.95R SWAINSBORO MOCLDY 52 19 28 NW10G17 29.97R VIDALIA MOCLDY 52 34 50 NW14 29.97R EASTMAN FAIR 51 33 50 NW5 30.03R HAZLEHURST FAIR 52 34 50 W5 29.98R ALMA PTCLDY 52 32 46 W12G21 29.98R WAYCROSS CLEAR 54 41 62 NW8 29.98R JESUP FAIR 54 41 62 NW10 29.95R BAXLEY MOCLDY 52 36 54 NW6 29.97R BRUNSWICK CLEAR 54 41 62 W7 29.95R SAINT SIMONS CLEAR 53 42 66 W7 29.94R $$ SCZ027-028-034-036>038-045-046-048>050-GAZ119-141-280600- ...LAKE AND SUPPLEMENTAL COASTAL OBSERVATIONS... STATION/POSITION TIME TEMP WIND PRES WAVE SWELL AIR SEA DIR/SP/G HT/PER HT/PER/DIR (UTC) (F) (DEG/KT/KT) (MB) (FT/S) (FT/S/D) UPR LAKE MARION NOT AVBL WINYAH BAY 0345 48 340/ 4 1009.0 LAKE MURRAY 0400 47 270/ 7/ 8 1011.9R ACE BASIN NERRS NOT AVBL FORT PULASKI 0412 350/ 9/ 12 N/A SAPELO ISLAND 0400 54 280/ 10 1013.0R $$ ANZ835-935-AMZ111-154-330-350-352-354-370-450-454-472-280600- ...C-MAN AND BUOY OBSERVATIONS... STATION/POSITION TIME TEMP WIND PRES WAVE SWELL AIR SEA DIR/SP/G HT/PER HT/PER/DIR (UTC) (F) (DEG/KT/KT) (MB) (FT/S) (FT/S/D) BUOY 41004 0450 54 68 340/ 16/ 19 1010.2R 5/ 6 2/ 8 BUOY 41008 0450 58 60 300/ 17/ 21 1012.1R 3/ 4 2/110/ 9 FOLLY BEACH CMAN 0500 49 320/ 6/ 9 1012.2R CAPERS NEARSHORE 0400 50 360/ 12/ 14 N/A FRIPP NEARSHORE 0400 55 330/ 16/ 17 1011.9R STATION/POSITION TIME TEMP WIND PRES WAVE SWELL AIR SEA DIR/SP/G HT/PER HT/PER/DIR (UTC) (F) (DEG/KT/KT) (MB) (FT/S) (FT/S/D) 5E ST. MARYS GA 0421 61 N/A 2/ 8 FRYING PAN BUOY 0450 51 65 350/ 17/ 21 1009.1R 8/ 7 3/ 40/13 BUOY 41025 NOT AVBL CAPE LOOKOUT NC 0400 45 350/ 19/ 22 1007.4R BUOY 41002 0450 70 69 230/ 23/ 29 1004.7F 11/ 8 BUOY 41010 0420 74 76 280/ 25/ 29 1010.1 ST AUGUSTINE FL 0500 55 60 270/ 6/ 8 1015.8R $$

USA.gov is the U.S. government's official web portal to all federal, state and local government web resources and services.